TimeCDT,TemperatureF,Dew PointF,Humidity,Sea Level PressureIn,VisibilityMPH,Wind Direction,Wind SpeedMPH,Gust SpeedMPH,PrecipitationIn,Events,Conditions,WindDirDegrees,DateUTC
12:15 AM,42.1,37.4,83,29.97,10.0,Calm,Calm,-,N/A,,Clear,0,2013-10-02 05:15:00
12:35 AM,40.8,36.9,86,29.98,10.0,Calm,Calm,-,N/A,,Clear,0,2013-10-02 05:35:00
12:55 AM,41.4,36.5,83,29.98,10.0,Calm,Calm,-,N/A,,Clear,0,2013-10-02 05:55:00
1:15 AM,40.5,38.8,94,29.99,10.0,Calm,Calm,-,N/A,,Clear,0,2013-10-02 06:15:00
1:35 AM,42.6,39.4,88,30.00,10.0,Calm,Calm,-,N/A,,Clear,0,2013-10-02 06:35:00
1:55 AM,38.7,35.8,89,30.00,10.0,Calm,Calm,-,N/A,,Clear,0,2013-10-02 06:55:00
2:15 AM,39.2,36.1,89,30.00,10.0,Calm,Calm,-,N/A,,Clear,0,2013-10-02 07:15:00
2:35 AM,37.6,35.8,93,30.00,10.0,Calm,Calm,-,N/A,,Clear,0,2013-10-02 07:35:00
2:55 AM,37.4,35.6,93,30.00,10.0,Calm,Calm,-,N/A,,Clear,0,2013-10-02 07:55:00
3:15 AM,37.6,34.5,89,30.00,10.0,Calm,Calm,-,N/A,,Clear,0,2013-10-02 08:15:00
3:35 AM,35.2,33.6,94,30.01,10.0,Calm,Calm,-,N/A,,Clear,0,2013-10-02 08:35:00
3:55 AM,38.3,35.8,91,30.02,10.0,Calm,Calm,-,N/A,,Clear,0,2013-10-02 08:55:00
4:15 AM,35.1,33.4,94,30.03,10.0,Calm,Calm,-,N/A,,Clear,0,2013-10-02 09:15:00
4:35 AM,35.6,33.8,93,30.04,10.0,Calm,Calm,-,N/A,,Clear,0,2013-10-02 09:35:00
4:55 AM,32.7,32.0,97,30.04,10.0,Calm,Calm,-,N/A,,Clear,0,2013-10-02 09:55:00
5:15 AM,32.2,31.1,96,30.04,10.0,Calm,Calm,-,N/A,,Clear,0,2013-10-02 10:15:00
5:35 AM,33.1,32.4,97,30.04,10.0,Calm,Calm,-,N/A,,Clear,0,2013-10-02 10:35:00
5:55 AM,32.9,32.2,97,30.05,10.0,Calm,Calm,-,N/A,,Clear,0,2013-10-02 10:55:00
6:15 AM,32.9,31.8,96,30.06,10.0,Calm,Calm,-,N/A,,Clear,0,2013-10-02 11:15:00
6:35 AM,33.4,32.2,95,30.06,10.0,Calm,Calm,-,N/A,,Clear,0,2013-10-02 11:35:00
6:55 AM,32.7,31.3,94,30.07,10.0,Calm,Calm,-,N/A,,Clear,0,2013-10-02 11:55:00
7:15 AM,32.0,31.3,97,30.07,10.0,Calm,Calm,-,N/A,,Clear,0,2013-10-02 12:15:00
7:35 AM,32.4,31.8,98,30.08,10.0,Calm,Calm,-,N/A,,Clear,0,2013-10-02 12:35:00
7:55 AM,34.7,33.4,95,30.08,10.0,Calm,Calm,-,N/A,,Clear,0,2013-10-02 12:55:00
8:15 AM,37.9,36.3,94,30.08,10.0,Calm,Calm,-,N/A,,Clear,0,2013-10-02 13:15:00
8:35 AM,42.6,39.6,89,30.09,10.0,Calm,Calm,-,N/A,,Clear,0,2013-10-02 13:35:00
8:55 AM,46.6,41.5,83,30.09,10.0,Calm,Calm,-,N/A,,Clear,0,2013-10-02 13:55:00
9:15 AM,50.2,42.6,75,30.09,10.0,Calm,Calm,-,N/A,,Clear,0,2013-10-02 14:15:00
9:35 AM,52.7,40.8,64,30.10,10.0,Calm,Calm,-,N/A,,Clear,0,2013-10-02 14:35:00
9:55 AM,54.7,41.4,61,30.10,10.0,Calm,Calm,-,N/A,,Clear,0,2013-10-02 14:55:00
10:15 AM,57.4,42.3,57,30.10,10.0,Calm,Calm,-,N/A,,Clear,0,2013-10-02 15:15:00
10:35 AM,59.7,41.5,51,30.10,10.0,Calm,Calm,-,N/A,,Clear,0,2013-10-02 15:35:00
10:55 AM,62.6,42.3,47,30.10,10.0,SW,3.5,-,N/A,,Clear,220,2013-10-02 15:55:00
11:15 AM,65.1,43.5,45,30.10,10.0,Calm,Calm,-,N/A,,Clear,0,2013-10-02 16:15:00
11:35 AM,66.9,39.9,37,30.09,10.0,WSW,3.5,-,N/A,,Clear,240,2013-10-02 16:35:00
11:55 AM,67.5,37.0,33,30.09,10.0,SSW,5.8,-,N/A,,Clear,200,2013-10-02 16:55:00
12:15 PM,68.0,38.1,33,30.09,10.0,SSW,4.6,-,N/A,,Clear,200,2013-10-02 17:15:00
12:35 PM,68.7,39.4,34,30.09,10.0,WSW,6.9,-,N/A,,Clear,240,2013-10-02 17:35:00
12:55 PM,68.9,36.1,30,30.08,10.0,Calm,Calm,-,N/A,,Clear,0,2013-10-02 17:55:00
1:15 PM,69.4,37.6,31,30.07,10.0,SW,5.8,-,N/A,,Clear,230,2013-10-02 18:15:00
1:35 PM,69.4,36.1,29,30.06,10.0,Calm,Calm,-,N/A,,Clear,0,2013-10-02 18:35:00
1:55 PM,70.5,39.0,32,30.06,10.0,South,3.5,-,N/A,,Clear,190,2013-10-02 18:55:00
2:15 PM,70.2,37.8,31,30.05,10.0,Calm,Calm,-,N/A,,Clear,0,2013-10-02 19:15:00
2:35 PM,70.9,38.3,30,30.05,10.0,South,5.8,-,N/A,,Clear,190,2013-10-02 19:35:00
2:55 PM,70.9,41.0,34,30.05,10.0,SSW,3.5,-,N/A,,Clear,200,2013-10-02 19:55:00
3:15 PM,71.1,40.3,33,30.04,10.0,SSE,5.8,-,N/A,,Clear,160,2013-10-02 20:15:00
3:35 PM,71.1,38.5,31,30.02,10.0,SE,5.8,-,N/A,,Clear,140,2013-10-02 20:35:00
3:55 PM,70.7,37.9,30,30.02,10.0,South,3.5,-,N/A,,Clear,170,2013-10-02 20:55:00
4:15 PM,70.7,38.5,31,30.01,10.0,SSW,3.5,-,N/A,,Clear,200,2013-10-02 21:15:00
4:35 PM,70.5,39.0,32,30.01,10.0,SSE,3.5,-,N/A,,Clear,160,2013-10-02 21:35:00
4:55 PM,70.0,39.7,33,30.01,10.0,SSE,3.5,-,N/A,,Clear,160,2013-10-02 21:55:00
5:15 PM,69.1,40.6,36,30.01,10.0,South,6.9,-,N/A,,Clear,170,2013-10-02 22:15:00
5:35 PM,68.4,40.6,36,30.00,10.0,SSE,3.5,-,N/A,,Clear,160,2013-10-02 22:35:00
5:55 PM,67.3,40.1,37,30.00,10.0,Calm,Calm,-,N/A,,Clear,0,2013-10-02 22:55:00
6:15 PM,65.3,40.8,41,30.00,10.0,Calm,Calm,-,N/A,,Clear,0,2013-10-02 23:15:00
6:35 PM,59.4,43.7,56,30.00,10.0,Calm,Calm,-,N/A,,Clear,0,2013-10-02 23:35:00
6:55 PM,55.4,43.7,65,30.00,10.0,Calm,Calm,-,N/A,,Clear,0,2013-10-02 23:55:00
7:15 PM,56.5,44.4,64,30.00,10.0,Calm,Calm,-,N/A,,Clear,0,2013-10-03 00:15:00
7:35 PM,52.3,44.8,75,30.00,10.0,Calm,Calm,-,N/A,,Clear,0,2013-10-03 00:35:00
7:55 PM,51.8,44.6,76,29.99,10.0,Calm,Calm,-,N/A,,Clear,0,2013-10-03 00:55:00
8:15 PM,54.0,43.9,69,29.99,10.0,SE,3.5,-,N/A,,Clear,140,2013-10-03 01:15:00
8:35 PM,57.7,43.5,59,29.99,10.0,Calm,Calm,-,N/A,,Mostly Cloudy,0,2013-10-03 01:35:00
8:55 PM,54.9,43.5,66,29.98,10.0,SE,5.8,-,N/A,,Scattered Clouds,140,2013-10-03 01:55:00
9:15 PM,56.3,42.6,60,29.98,10.0,SE,3.5,-,N/A,,Clear,140,2013-10-03 02:15:00
9:35 PM,55.6,41.9,60,29.97,10.0,SE,3.5,-,N/A,,Clear,140,2013-10-03 02:35:00
9:55 PM,56.3,41.5,58,29.97,10.0,SSE,4.6,-,N/A,,Clear,160,2013-10-03 02:55:00
10:15 PM,56.3,40.8,56,29.98,10.0,NNE,3.5,-,N/A,,Scattered Clouds,30,2013-10-03 03:15:00
10:35 PM,54.5,42.3,63,29.98,10.0,Calm,Calm,-,N/A,,Mostly Cloudy,0,2013-10-03 03:35:00
10:55 PM,54.9,43.9,66,29.98,10.0,ENE,3.5,-,N/A,,Overcast,60,2013-10-03 03:55:00
11:15 PM,57.4,42.8,58,29.98,10.0,East,4.6,-,N/A,,Overcast,80,2013-10-03 04:15:00
11:35 PM,55.0,43.2,64,29.97,10.0,ENE,4.6,-,N/A,,Mostly Cloudy,60,2013-10-03 04:35:00
11:55 PM,54.3,43.0,66,29.96,10.0,ENE,3.5,-,N/A,,Mostly Cloudy,70,2013-10-03 04:55:00